星链-32649 (STARLINK-32649)

导读

STARLINK-32649是美国SpaceX公司星链(Starlink)星座的卫星,于2024年12月13日发射入轨,属于SpaceX当年第88批星链发射任务的组成部分。星链星座旨在构建全球卫星互联网覆盖网络,提供高速低延迟通信服务,包括面向手机直连等应用拓展。该卫星入轨后将与其他数千颗星链卫星组网,推动全球无缝网络覆盖建设,截至2024年底SpaceX已累计发射超过7500颗星链卫星。

基本信息
目录编号:
62305
目录名称:
STARLINK-32649
国际标识:
2024-239E
轨道中心:
EARTH
卫星名称:
星链-32649
卫星全名:
星链-32649 (STARLINK-32649)
卫星状态:
在轨 (已飞行548 天)
发射日期:
2024-12-13 UTC
国别 :
美国 (US)
星等 :
--
轨道信息
数据来源 国际轨道数据
星历时间: 2026-06-14T06:00:02+0800
11小时前
查看轨道信息
半长轴: 6840.818km
偏心率: 0.0000905
轨道倾角: 53.161°
近地点辐角 89.734°
升交点赤经 106.306°
平近点角 352.711°
近地点: 462.061km
远地点: 463.301km
周期: 93.847分钟
每日圈数: 15.344076
详细信息
固有亮度:
5
最大亮度:
2.5
卫星平台:
Starlink V1.0
覆盖范围:
全球
运营商:
太空探索技术公司
运营商所在国:
美国
制造商(研发单位):
太空探索技术公司
制造商所在国:
美国
使用方式:
暂无
卫星简介
Starlink 计划是 SpaceX 推出的全球卫星互联网项目,通过发射低轨道卫星,为全球尤其是偏远地区提供高速、低延迟的互联网服务。自 2019 年起,Starlink 已部署数千颗卫星,旨在缩小全球数字鸿沟,推动互联网普及。该项目还为军事、航空等行业提供通信支持,带来广泛经济效益。
2D轨道图
3D轨道图
轨道高度分析图
轨道倾角分析图
轨道综合分析图
查看轨道综合分析图